Regional Weather Roundup
Issued by NWS Sterling, VA

Home | Current Version | Previous Version | Text Only | Print | Product List | Glossary Off
Versions: 1 2 3 4 5 6 7 8 9 10 11 12 13 14 15 16 17 18 19 20 21 22 23 24 25 26 27 28 29 30 31 32 33 34 35 36 37 38 39 40 41 42 43 44 45 46 47 48 49 50

037
ASUS41 KLWX 210010
RWRLWX

REGIONAL WEATHER ROUNDUP
NATIONAL WEATHER SERVICE BALTIMORE MD/WASHINGTON DC
700 PM EST MON FEB 20 2017

Note: "FAIR" indicates few or no clouds below 12,000 feet
with no significant weather and/or obstructions to visibility.
 TC=TEMPERATURE CELSIUS

 * =Non NWS site. Station does not report precipitation (e.g. rain,
    snow, etc.), thunder, or fog.

DCZ001-MDZ009-015-VAZ040>042-051-053>054-210100-
WASHINGTON METRO

CITY           SKY/WX    TMP DP  RH WIND       PRES   REMARKS
WASHINGTON NAT PTCLDY    57  34  41 NE7       30.25R
DULLES         PTCLDY    55  29  36 NE8       30.23R
ANDREWS AFB    CLEAR     53  32  45 E3        30.24R
FT BELVOIR     CLEAR     53  30  41 SE3       30.24R
QUANTICO       CLEAR     57  35  43 E12       30.24R
COLLEGE PARK*  CLEAR     55  30  38 NE3       30.25R
LEESBURG*      CLEAR     59  32  36 NE6       30.25R
MANASSAS*      CLEAR     56  31  38 NE6       30.24R
GAITHERSBURG*  CLEAR     54  28  37 NE3       30.29R

$$

MDZ006>007-011-014-210100-
BALTIMORE METRO

CITY           SKY/WX    TMP DP  RH WIND       PRES   REMARKS
BWI AIRPORT    PTCLDY    54  27  35 NE3       30.26R
MD SCIENCE CTR   N/A     56  26  31 MISG      30.27R
MARTIN STATE   CLEAR     52  32  46 CALM      30.28R
ANNAPOLIS      CLEAR     54  32  43 NE7       30.26R
FORT MEADE*    CLEAR     48  30  49 NE3       30.28R

$$

MDZ012-015-019>023-210100-
MARYLAND EASTERN SHORE

CITY           SKY/WX    TMP DP  RH WIND       PRES   REMARKS
OCEAN CITY     PTCLDY    50  30  46 N5        30.25R
SALISBURY      PTCLDY    48  33  56 NE3       30.24R
BAY BRIDGE AP* CLEAR     54  30  40 N6        30.27R
EASTON*        PTCLDY    50  30  46 NE5       30.29R

$$

MDZ017>025-210100-
SOUTHERN MARYLAND

CITY           SKY/WX    TMP DP  RH WIND       PRES   REMARKS
PATUXENT RIVER CLEAR     49  35  58 CALM      30.24R
ST INIGOES     CLEAR     48  35  60 N3        30.24R
LEONARDTOWN*   CLEAR     48  32  53 CALM      30.27R

$$

MDZ003>005-210100-
NORTH CENTRAL MARYLAND

CITY           SKY/WX    TMP DP  RH WIND       PRES   REMARKS
FREDERICK*     CLEAR     48  34  57 CALM      30.28R
HAGERSTOWN APT CLEAR     55  31  39 NE8       30.23S
WESTMINSTER*   CLEAR     52  30  43 NE7       30.25S

$$

MDZ501>502-210100-
WESTERN MARYLAND

CITY           SKY/WX    TMP DP  RH WIND       PRES   REMARKS
OAKLAND*       CLOUDY    52  30  43 E5        30.22S
CUMBERLAND*    CLEAR     59  28  31 CALM      30.24S

$$

VAZ025>031-210100-
SHENANDOAH VALLEY

CITY           SKY/WX    TMP DP  RH WIND       PRES   REMARKS
WINCHESTER*    CLEAR     54  32  43 NE3       30.22S
FRONT ROYAL*   CLEAR     55  36  47 NE5       30.21R
LURAY*         PTCLDY    54  39  58 NE3       30.20S
NEW MARKET*    PTCLDY    48  34  56 SW3       30.19S
STAUNTON*      CLOUDY    50  37  59 CALM      30.22R
WAYNESBORO*    PTCLDY    57  31  36 E6        30.21R

$$

WVZ021-048>050-054>055-210100-
EASTERN WEST VIRGINIA PANHANDLE

CITY           SKY/WX    TMP DP  RH WIND       PRES   REMARKS
MARTINSBURG    CLEAR     54  28  36 E3        30.23R
PETERSBURG*    CLEAR     51  40  68 CALM      30.20S

$$

VAZ036>039-050-210100-
CENTRAL FOOTHILLS

CITY           SKY/WX    TMP DP  RH WIND       PRES   REMARKS
CHARLOTTESVILL PTCLDY    63  34  33 CALM      30.21R
CULPEPER*      CLEAR     56  37  49 NE3       30.24R
ORANGE*        PTCLDY    48  37  66 CALM      30.23R
GORDONSVILLE*  PTCLDY    53  39  58 NE3       30.21R
WARRENTON*     CLEAR     57  30  35 NE3       30.23R

$$

VAZ055>057-210100-
NORTH AND CENTRAL PIEDMONT

CITY           SKY/WX    TMP DP  RH WIND       PRES   REMARKS
FREDERICKSBRG* CLEAR     60  34  37 E3        30.22R
STAFFORD*      CLEAR     56  32  40 E3        30.27R

$$

NCZ024-NYZ072-PAZ021-071-VAZ022-071-210100-
OTHER REGIONAL OBSERVATIONS

CITY           SKY/WX    TMP DP  RH WIND       PRES   REMARKS
NEW YORK CITY  CLEAR     46  12  25 NE14G20   30.32R
PHILADELPHIA   PTCLDY    52  18  26 N10       30.27R
PITTSBURGH     CLOUDY    54  34  46 E3        30.20F
ROANOKE        MOCLDY    64  30  27 SE6       30.21R
RICHMOND       MOCLDY    58  41  53 NE5       30.21R
RALEIGH        MOCLDY    61  37  41 CALM      30.20S

$$

ANZ530>537-210100-
MARINE OBSERVATIONS

STATION/POSITION TIME  TEMP    WIND        PRES
                       AIR SEA DIR/SP/G
                 (UTC) (F)     (DEG/KT/KT) (MB)
THOMAS PT LIGHT  0000   55 43   40/ 11/ 12   N/A
BALT KEY BRIDGE  2342   56      20/  7/  8 1024.8R
COVE POINT       2342   52     360/  7/  8 1024.8R
LEWISETTA        2342   53 47  340/  2/  2 1023.7R
SOLOMONS ISLAND  2342   53 44  320/  3/  4   N/A
PINEY POINT      2348          360/  2/  3   N/A

$$





USA.gov is the U.S. government's official web portal to all federal, state and local government web resources and services.